FW0714 Weather Reports


time (UTC)temp
F
wind
direction
speed
knots
gust
knots
rain 1hr
in
rain 24hr
in
rain mn
in
humidity
%
barometer
mb
20260507024712 41 42 0.0 0.9 0.00 0.04 0.00 89 1012.7
20260507024209 41 42 0.0 0.0 0.00 0.04 0.00 89 1012.7
20260507023719 41 42 0.0 0.0 0.00 0.04 0.00 89 1012.7
20260507022706 41 42 0.0 0.0 0.00 0.04 0.00 89 1012.7
20260507022236 41 42 0.0 0.0 0.00 0.04 0.00 89 1012.7
20260507021217 41 42 0.0 0.9 0.00 0.04 0.00 89 1012.5
20260507020707 41 42 0.0 0.9 0.00 0.04 0.00 89 1012.6
20260507020216 42 21 0.0 0.9 0.00 0.04 0.00 89 1012.5
20260507015717 42 21 0.0 2.6 0.00 0.04 0.00 89 1012.4
20260507014715 42 20 0.0 2.6 0.00 0.04 0.00 89 1012.4
20260507014237 42 0 0.0 0.0 0.00 0.04 0.00 89 1012.4
20260507012708 42 0 0.0 2.6 0.00 0.04 0.00 88 1012.3
20260507012238 42 0 0.0 1.7 0.00 0.04 0.00 88 1012.3
20260507011741 42 0 0.0 1.7 0.00 0.04 0.00 88 1012.3
20260507011207 42 0 0.0 0.9 0.00 0.04 0.00 88 1012.2
20260507010712 42 0 0.0 3.5 0.00 0.04 0.00 88 1012.2
20260507010209 43 0 0.0 3.5 0.00 0.04 0.00 88 1012.2
20260507005706 43 0 0.0 0.9 0.00 0.04 0.00 88 1012.2
20260507005220 43 321 0.0 1.7 0.00 0.04 0.00 88 1012.1
20260507004717 43 321 0.0 1.7 0.00 0.04 0.00 88 1012.1
20260507004211 43 321 0.0 1.7 0.00 0.04 0.00 88 1012.1
20260507003707 43 348 0.0 1.7 0.00 0.04 0.00 88 1012.1
20260507002712 43 354 0.0 2.6 0.00 0.04 0.00 88 1012.1
20260507002206 43 354 0.0 2.6 0.00 0.04 0.00 87 1012.1
20260507001714 44 334 0.9 2.6 0.00 0.04 0.00 87 1012.0
20260507001226 44 0 0.0 2.6 0.00 0.04 0.00 87 1012.0
20260507000714 44 7 0.0 2.6 0.00 0.04 0.00 87 1012.0
20260506235717 44 323 0.0 2.6 0.00 0.04 0.00 87 1012.1
20260506234709 44 4 0.0 2.6 0.00 0.04 0.00 86 1012.1
20260506234211 44 4 0.0 2.6 0.00 0.04 0.00 86 1012.1
20260506233719 44 80 0.0 1.7 0.00 0.04 0.00 86 1012.1
20260506233244 45 0 0.0 1.7 0.00 0.04 0.00 86 1012.1
20260506232718 45 0 0.0 2.6 0.00 0.04 0.00 86 1012.1
20260506232211 45 0 0.0 2.6 0.00 0.04 0.00 86 1012.1
20260506231707 45 319 0.0 2.6 0.00 0.04 0.00 86 1012.1
20260506231211 45 319 0.9 1.7 0.00 0.04 0.00 86 1012.1
20260506230708 45 0 0.0 1.7 0.00 0.04 0.00 85 1012.1
20260506230205 45 0 0.0 3.5 0.00 0.04 0.00 85 1012.1
20260506225717 46 355 0.0 3.5 0.00 0.04 0.00 85 1012.0
20260506224718 46 7 0.9 3.5 0.00 0.04 0.00 85 1012.0
20260506224205 46 27 0.9 3.5 0.00 0.04 0.00 84 1012.0
20260506223712 46 0 0.0 3.5 0.00 0.04 0.00 84 1011.9
20260506223207 46 0 0.9 3.5 0.00 0.04 0.00 84 1012.0
20260506222713 46 0 0.0 4.3 0.00 0.04 0.00 84 1011.9
20260506221211 47 355 0.9 5.2 0.00 0.04 0.00 83 1011.8
20260506220706 47 306 0.0 4.3 0.00 0.04 0.00 83 1011.8
20260506220211 47 37 0.0 4.3 0.00 0.04 0.04 82 1011.8
20260506215213 47 42 1.7 4.3 0.00 0.04 0.04 82 1011.8
20260506214207 48 48 0.0 5.2 0.00 0.04 0.04 82 1011.7
20260506213214 48 48 0.9 5.2 0.00 0.04 0.04 81 1011.6
20260506212715 48 25 1.7 5.2 0.00 0.04 0.04 81 1011.6
20260506212215 48 0 0.9 5.2 0.00 0.04 0.04 81 1011.6
20260506211714 49 4 0.9 5.2 0.00 0.04 0.04 80 1011.5
20260506211212 49 37 0.0 5.2 0.00 0.04 0.04 80 1011.6
20260506210715 49 56 1.7 7.8 0.00 0.04 0.04 80 1011.5
20260506210206 49 350 0.9 7.8 0.00 0.04 0.04 80 1011.5
20260506205707 49 4 0.9 7.8 0.00 0.04 0.04 79 1011.5
20260506205206 49 0 1.7 3.5 0.00 0.04 0.04 79 1011.5
20260506203212 50 329 0.9 4.3 0.00 0.04 0.04 78 1011.4
20260506202710 50 307 0.9 4.3 0.00 0.04 0.04 78 1011.4
20260506201706 50 299 0.0 3.5 0.00 0.04 0.04 77 1011.4
20260506201217 50 68 0.9 3.5 0.00 0.04 0.04 77 1011.4
20260506200213 51 0 1.7 4.3 0.00 0.04 0.04 77 1011.3
20260506195718 51 23 1.7 4.3 0.00 0.04 0.04 77 1011.2
20260506195209 51 61 0.0 5.2 0.00 0.04 0.04 77 1011.1
20260506194708 51 65 2.6 5.2 0.00 0.04 0.04 77 1011.1
20260506192718 51 47 0.9 6.1 0.00 0.04 0.04 77 1011.0
20260506192211 51 65 1.7 0.9 0.00 0.04 0.04 78 1010.9
20260506191713 52 51 0.0 0.9 0.00 0.04 0.04 78 1010.9
20260506191209 52 51 0.0 0.9 0.00 0.04 0.04 78 1010.8
20260506190712 52 51 0.0 0.0 0.00 0.04 0.04 78 1010.8
20260506190206 52 52 0.0 0.0 0.00 0.04 0.04 78 1010.7
20260506185716 52 52 0.0 0.0 0.00 0.04 0.04 77 1010.7
20260506185217 52 52 0.0 0.0 0.00 0.04 0.04 77 1010.6
20260506184711 52 52 0.0 0.0 0.00 0.04 0.04 77 1010.6
20260506184211 52 52 0.0 0.0 0.00 0.04 0.04 76 1010.6
20260506183713 52 52 0.0 1.7 0.00 0.04 0.04 76 1010.5
20260506183215 52 52 0.0 2.6 0.00 0.04 0.04 75 1010.4
20260506182715 52 52 0.0 2.6 0.00 0.04 0.04 75 1010.4
20260506181713 52 51 0.0 1.7 0.00 0.04 0.04 74 1010.2
20260506181208 52 51 0.9 2.6 0.00 0.04 0.04 74 1010.2
20260506180713 52 51 0.9 2.6 0.00 0.04 0.04 74 1010.1
20260506180212 52 51 0.9 2.6 0.00 0.04 0.04 74 1010.0
20260506175705 52 48 0.9 2.6 0.00 0.04 0.04 74 1010.0
20260506174719 52 58 0.9 3.5 0.00 0.04 0.04 74 1009.9
20260506174220 52 55 0.9 3.5 0.00 0.04 0.04 73 1009.8
20260506173707 52 68 0.9 3.5 0.00 0.04 0.04 73 1009.9
20260506173206 52 68 1.7 3.5 0.00 0.04 0.04 73 1009.8
20260506172714 53 72 0.9 3.5 0.00 0.04 0.04 73 1009.8
20260506172220 53 56 0.9 2.6 0.00 0.04 0.04 74 1009.7
20260506171711 53 56 1.7 2.6 0.00 0.04 0.04 74 1009.7
20260506171219 53 56 1.7 1.7 0.00 0.04 0.04 74 1009.7
20260506170709 53 56 0.9 1.7 0.00 0.04 0.04 74 1009.7
20260506170219 53 41 0.0 1.7 0.00 0.04 0.04 74 1009.7
20260506165705 53 41 0.9 2.6 0.00 0.04 0.04 74 1009.6
20260506165212 53 35 0.0 3.5 0.00 0.04 0.04 74 1009.6
20260506164712 53 35 0.9 3.5 0.00 0.04 0.04 73 1009.6
20260506164209 53 31 0.9 3.5 0.00 0.04 0.04 74 1009.6
20260506163711 53 66 0.0 3.5 0.00 0.04 0.04 73 1009.6
20260506162238 53 66 1.7 3.5 0.00 0.04 0.04 73 1009.5
20260506161728 53 76 0.9 3.5 0.00 0.04 0.04 73 1009.5
20260506161224 53 82 1.7 3.5 0.00 0.04 0.04 73 1009.5
20260506160717 53 83 0.9 2.6 0.00 0.04 0.04 74 1009.5
20260506160230 53 80 0.9 2.6 0.00 0.04 0.04 74 1009.5
20260506155707 53 86 1.7 2.6 0.00 0.04 0.04 73 1009.5
20260506155210 53 103 0.9 3.5 0.00 0.04 0.04 74 1009.6
20260506154715 53 106 0.9 4.3 0.00 0.04 0.04 74 1009.6
20260506154207 53 104 0.9 4.3 0.00 0.04 0.04 74 1009.5
20260506153210 53 41 0.9 7.8 0.00 0.04 0.04 72 1009.6
20260506152713 53 69 2.6 7.8 0.00 0.04 0.04 72 1009.6
20260506152210 53 76 4.3 4.3 0.00 0.04 0.04 73 1009.6
20260506151715 53 75 1.7 6.1 0.00 0.04 0.04 74 1009.5
20260506151206 53 51 1.7 6.1 0.00 0.04 0.04 73 1009.4
20260506150214 53 63 2.6 3.5 0.00 0.04 0.04 75 1009.4
20260506145707 53 73 1.7 5.2 0.00 0.04 0.04 76 1009.4
20260506145216 53 54 1.7 5.2 0.00 0.04 0.04 75 1009.4
20260506144219 53 72 2.6 9.6 0.00 0.04 0.04 74 1009.4
20260506143708 53 75 3.5 9.6 0.00 0.04 0.04 72 1009.4
20260506142714 53 54 2.6 10.4 0.00 0.04 0.04 73 1009.3
20260506142215 53 92 1.7 12.2 0.00 0.04 0.04 73 1009.3
20260506141707 53 28 3.5 12.2 0.00 0.04 0.04 72 1009.3
20260506141246 53 78 5.2 8.7 0.00 0.04 0.04 73 1009.3
20260506140718 53 94 3.5 8.7 0.00 0.04 0.04 73 1009.4
20260506140219 53 56 3.5 8.7 0.00 0.04 0.04 73 1009.3
20260506135711 53 37 3.5 9.6 0.00 0.04 0.04 73 1009.3
20260506135208 53 96 3.5 9.6 0.00 0.04 0.04 73 1009.3
20260506134720 53 66 3.5 11.3 0.00 0.04 0.04 74 1009.3
20260506134218 53 25 4.3 11.3 0.00 0.04 0.04 74 1009.3
20260506133715 53 96 3.5 10.4 0.00 0.04 0.04 72 1009.3
20260506133215 53 69 4.3 8.7 0.00 0.04 0.04 72 1009.3
20260506132713 53 32 4.3 8.7 0.00 0.04 0.04 71 1009.3
20260506131710 52 72 3.5 9.6 0.00 0.04 0.04 72 1009.4
20260506131205 52 55 3.5 10.4 0.00 0.04 0.04 71 1009.4
20260506130713 52 17 4.3 10.4 0.00 0.04 0.04 71 1009.4
20260506130207 52 66 3.5 10.4 0.00 0.04 0.04 71 1009.5
20260506125713 52 93 5.2 10.4 0.00 0.04 0.04 71 1009.5
20260506125212 51 61 5.2 10.4 0.00 0.04 0.04 71 1009.4
20260506124716 51 56 5.2 9.6 0.00 0.04 0.04 72 1009.4
20260506124206 51 90 3.5 12.2 0.00 0.04 0.04 74 1009.3
20260506123208 51 78 3.5 12.2 0.00 0.04 0.04 74 1009.4
20260506122716 51 85 5.2 11.3 0.00 0.04 0.04 73 1009.3
20260506122211 51 0 6.1 10.4 0.00 0.04 0.04 74 1009.3
20260506121206 51 39 4.3 11.3 0.00 0.04 0.04 76 1009.3
20260506120209 51 61 2.6 11.3 0.00 0.04 0.04 76 1009.3
20260506115219 51 58 4.3 9.6 0.00 0.04 0.04 76 1009.1
20260506114714 51 96 6.1 8.7 0.00 0.04 0.04 76 1009.0
20260506114212 51 59 3.5 8.7 0.00 0.04 0.04 77 1009.0
20260506113719 51 41 2.6 8.7 0.00 0.04 0.04 76 1009.0
20260506113211 51 55 4.3 8.7 0.00 0.04 0.04 76 1008.9
20260506112712 51 24 3.5 8.7 0.00 0.04 0.04 76 1008.9
20260506112208 51 39 3.5 7.8 0.00 0.04 0.04 76 1008.9
20260506111709 51 63 5.2 7.8 0.00 0.04 0.04 75 1008.9
20260506111215 51 85 4.3 7.8 0.00 0.04 0.04 75 1008.8
20260506110717 51 100 3.5 10.4 0.00 0.04 0.04 75 1008.8
20260506110207 51 47 4.3 12.2 0.00 0.04 0.04 74 1008.7
20260506105712 51 80 2.6 12.2 0.00 0.04 0.04 73 1008.7
20260506105219 51 0 4.3 12.2 0.00 0.04 0.04 74 1008.8
20260506104717 51 14 5.2 9.6 0.00 0.04 0.04 74 1008.8
20260506103714 51 103 3.5 5.2 0.00 0.04 0.04 76 1008.8
20260506103209 51 47 0.9 5.2 0.00 0.04 0.04 77 1008.7
20260506102711 51 51 1.7 6.1 0.00 0.04 0.04 77 1008.7
20260506101709 50 17 3.5 6.1 0.00 0.04 0.04 76 1008.6
20260506100710 50 58 3.5 7.8 0.00 0.04 0.04 76 1008.6
20260506100239 50 51 3.5 7.8 0.00 0.04 0.04 77 1008.6
20260506095714 50 14 2.6 7.8 0.00 0.04 0.04 78 1008.5
20260506095211 50 23 1.7 7.8 0.00 0.04 0.04 78 1008.5
20260506094707 50 72 1.7 7.8 0.00 0.04 0.04 77 1008.6
20260506094210 50 42 1.7 9.6 0.00 0.04 0.04 77 1008.5
20260506093217 50 38 4.3 9.6 0.00 0.04 0.04 76 1008.5
20260506092705 50 42 4.3 10.4 0.00 0.04 0.04 75 1008.4
20260506092207 50 45 5.2 10.4 0.00 0.04 0.04 76 1008.4
20260506091709 50 79 2.6 10.4 0.00 0.04 0.04 76 1008.4
20260506091219 50 68 3.5 9.6 0.00 0.04 0.04 77 1008.3
20260506090707 50 62 2.6 9.6 0.00 0.04 0.04 76 1008.3
20260506090215 50 80 3.5 9.6 0.00 0.04 0.04 77 1008.3
20260506085709 50 71 3.5 7.8 0.00 0.04 0.04 78 1008.2
20260506084710 50 79 3.5 8.7 0.00 0.04 0.04 79 1008.2
20260506084217 50 80 3.5 8.7 0.00 0.04 0.04 80 1008.2
20260506082707 50 355 1.7 9.6 0.00 0.04 0.04 80 1008.1
20260506081208 50 79 2.6 7.8 0.00 0.04 0.04 82 1007.9
20260506080722 50 37 3.5 10.4 0.00 0.04 0.04 82 1007.9
20260506080206 50 69 2.6 10.4 0.00 0.04 0.04 83 1007.9
20260506073209 49 58 3.5 6.1 0.00 0.04 0.04 84 1007.8
20260506072714 49 48 2.6 7.8 0.00 0.04 0.04 84 1007.8
20260506072242 49 42 2.6 7.8 0.00 0.04 0.04 84 1007.9
20260506071706 49 80 1.7 7.8 0.00 0.04 0.04 85 1007.8
20260506071217 49 35 2.6 7.8 0.00 0.04 0.04 85 1007.8
20260506070717 49 55 4.3 7.8 0.00 0.04 0.04 85 1007.8
20260506070219 49 45 3.5 7.8 0.00 0.04 0.04 85 1007.7
20260506062214 48 24 0.9 4.3 0.02 0.04 0.04 87 1007.6
20260506061712 48 44 0.9 2.6 0.02 0.04 0.04 87 1007.6
20260506061208 48 48 0.0 4.3 0.02 0.04 0.04 87 1007.6
20260506060718 48 47 0.0 4.3 0.02 0.04 0.04 87 1007.5
20260506060218 48 69 0.9 4.3 0.02 0.04 0.04 87 1007.6
20260506050710 49 23 1.7 6.1 0.02 0.02 0.02 87 1007.6
20260506050207 49 42 3.5 6.1 0.02 0.02 0.02 87 1007.6
20260506044207 49 83 3.5 7.8 0.01 0.01 0.01 87 1007.5
20260506043705 49 72 2.6 5.2 0.01 0.01 0.01 87 1007.4
20260506043216 49 71 2.6 5.2 0.01 0.01 0.01 86 1007.4
20260506042713 49 47 1.7 5.2 0.00 0.00 0.00 86 1007.4
20260506041716 50 6 0.9 5.2 0.00 0.00 0.00 86 1007.3
20260506041217 50 65 1.7 5.2 0.00 0.00 0.00 86 1007.3
20260506040705 50 48 1.7 5.2 0.00 0.00 0.00 86 1007.4
20260506040207 50 0 2.6 7.8 0.00 0.00 0.00 86 1007.4
20260506035707 50 49 1.7 8.7 0.00 0.00 0.00 85 1007.3
20260506034711 50 48 1.7 8.7 0.00 0.00 0.00 85 1007.4
20260506034206 50 21 2.6 6.1 0.00 0.00 0.00 86 1007.4
20260506033714 50 0 2.6 6.1 0.00 0.00 0.00 86 1007.4
20260506032705 50 31 2.6 7.8 0.00 0.00 0.00 86 1007.5
20260506032217 50 37 1.7 7.8 0.00 0.00 0.00 86 1007.5
20260506031709 50 20 0.9 6.1 0.00 0.00 0.00 86 1007.6
20260506031218 50 10 1.7 8.7 0.00 0.00 0.00 86 1007.7
20260506030719 50 75 0.0 8.7 0.00 0.00 0.00 86 1007.6
20260506030208 50 23 1.7 8.7 0.00 0.00 0.00 86 1007.6
20260506025718 50 59 1.7 8.7 0.00 0.00 0.00 86 1007.6
20260506025206 50 27 2.6 8.7 0.00 0.00 0.00 86 1007.7